Weather Roundup
Issued by NWS Springfield, MO

Home | Current Version | Previous Version | Text Only | Print | Product List | Glossary On
Versions: 1 2 3 4 5 6 7 8 9 10 11 12 13 14 15 16 17 18 19 20 21 22 23 24 25 26 27 28 29 30 31 32 33 34 35 36 37 38 39 40 41 42 43 44 45 46 47 48 49 50
000
NZUS99 KSGF 310307
HRRSGF

HOURLY WEATHER
NATIONAL WEATHER SERVICE SPRINGFIELD MO
1000 PM CDT SUN AUG 30 2015

......SGF CWA......

CITY           SKY/WX    TMP DP  RH WIND       PRES   REMARKS
SPRINGFIELD    CLEAR     76  70  82 SE7       30.01R
JOPLIN         CLEAR     76  71  85 SE6       29.98R
WEST PLAINS    CLEAR     74  68  81 CALM      30.05S
ROLLA          PTCLDY    75  70  84 S7        30.02R
OSAGE BEACH    CLEAR     75  70  83 CALM      30.01F
BRANSON        PTCLDY    75  72  88 CALM      30.03S

......SURROUNDING SGF CWA......

CITY           SKY/WX    TMP DP  RH WIND       PRES   REMARKS
CHANUTE        CLEAR     74  70  87 CALM      29.97R
PARSONS        PTCLDY    75  73  93 CALM      29.97R
COFFEYVILLE    CLEAR     75  74  96 CALM      29.95S
EMPORIA        CLEAR     72  67  84 SE7       29.98R
GROVE OK       CLEAR     75  75 100 CALM      29.98S
ROGERS AR      CLEAR     75  72  90 SE7       30.02R
SILOAM SPRINGS CLEAR     75  66  73 SE8       29.98S
NEAR YELLVILLE PTCLDY    75  66  73 CALM      29.99S

......KANSAS AND MISSOURI......

CITY           SKY/WX    TMP DP  RH WIND       PRES   REMARKS
KANSAS CTY INT CLEAR     74  69  85 SE6       29.98R
DOWNTOWN KC    CLEAR     80  71  74 SE6       29.96R
COLUMBIA       PTCLDY    76  72  87 SE6       30.01R
SEDALIA        MOCLDY    79  72  79 SE7       30.01R
ST JOSEPH      PTCLDY    72  68  87 E3        29.97R
ST LOUIS       MOCLDY    82  70  66 S8        30.02R
SPIRIT OF STL  PTCLDY    75  73  93 CALM      30.00R
KIRKSVILLE     CLEAR     71  66  84 SE5       30.02R
WICHITA        CLEAR     75  67  76 SE10      29.96R
TOPEKA         CLEAR     71  69  93 SE3       29.97R
OLATHE         CLEAR     75  70  84 SE5       29.98R

......TENNESSEE......

CITY           SKY/WX    TMP DP  RH WIND       PRES   REMARKS
MEMPHIS        PTCLDY    78  70  76 SE8       30.04R
NASHVILLE      PTCLDY    71  64  78 CALM      30.10S

......ARKANSAS.......

CITY           SKY/WX    TMP DP  RH WIND       PRES   REMARKS
FAYETTEVILLE   CLEAR     71  71 100 CALM      30.00S FOG
FT SMITH       PTCLDY    77  66  68 CALM      29.96S
LITTLE ROCK    CLEAR     81  67  62 SE8       29.99S

......OKLAHOMA.......

CITY           SKY/WX    TMP DP  RH WIND       PRES   REMARKS
TULSA          PTCLDY    78  72  81 SE9       29.92R
PONCA CITY     CLEAR     76  70  82 SE7       29.95R
MCALESTER      CLOUDY    77  68  73 SE5       29.95R
OKLAHOMA CITY  PTCLDY    76  65  68 E7        29.94R

......IOWA............

CITY           SKY/WX    TMP DP  RH WIND       PRES   REMARKS
DES MOINES     PTCLDY    72  68  87 SE7       29.98S
QUAD CITIES    CLEAR     66  63  90 E3        30.02R

......ILLINOIS........

CITY           SKY/WX    TMP DP  RH WIND       PRES   REMARKS
QUINCY         CLEAR     75  69  81 E6        30.01S
CHICAGO        CLEAR     65  63  93 SE7       30.04S




USA.gov is the U.S. government's official web portal to all federal, state and local government web resources and services.